Regional Weather Roundup
Issued by NWS

Home | Current Version | Previous Version | Graphics & Text | Print | Product List | Glossary Off
Versions: 1 2 3 4 5 6 7 8 9 10 11 12 13 14 15 16 17 18 19 20 21 22 23 24 25 26 27 28 29 30 31 32 33 34 35 36 37 38 39 40 41 42 43 44 45 46 47 48 49 50

000
ASUS43 KTOP 220808
RWRKS

WEATHER ROUNDUP FOR KANSAS
NATIONAL WEATHER SERVICE GOODLAND KS
200 AM CST MON DEC 22 2014

NOTE:  "FAIR" INDICATES FEW OR NO CLOUDS BELOW 12,000 FEET WITH NO
SIGNIFICANT WEATHER AND/OR OBSTRUCTIONS TO VISIBILITY.

KSZ001>006-013>018-027>032-041>047-220900-
NORTHWEST KANSAS

CITY           SKY/WX    TMP DP  RH WIND       PRES   REMARKS
GOODLAND       MOCLDY    38  32  79 NW20G28   29.59R WCI  28
HAYS           CLOUDY    45  37  76 SW12      29.53S
HILL CITY      MOCLDY    38  34  85 SW5       29.52S
RUSSELL        CLOUDY    44  43  96 S17       29.52F FOG
$$

KSZ061>065-074>080-084>089-220900-
SOUTHWEST KANSAS

CITY           SKY/WX    TMP DP  RH WIND       PRES   REMARKS
DODGE CITY     CLOUDY    42  39  89 SW8       29.55F FOG
ELKHART          N/A    N/A N/A N/A MISG        N/A
GARDEN CITY    CLOUDY    34  34 100 W6        29.55F
GREAT BEND     CLOUDY    43  39  87 S10       29.56F
LIBERAL        PTCLDY    34  27  75 NW10      29.59R WCI  26
PRATT          FOG       43  41  93 S9        29.57S VSB 1
$$

KSZ066>073-081>083-090>101-220900-
SOUTHEAST KANSAS

CITY           SKY/WX    TMP DP  RH WIND       PRES   REMARKS
CHANUTE        CLOUDY    44  43  96 S13       29.67F FOG
COFFEYVILLE    CLOUDY    45  43  93 SE9       29.67F
HUTCHINSON     CLOUDY    45  42  89 S12       29.58F FOG
MEDICINE LODGE   N/A     44  44 100 S7        29.56F
NEWTON         CLOUDY    43  37  81 S13       29.60F
PARSONS        CLOUDY    44  44 100 SE8       29.68F
WICHITA INTL   DRIZZLE   45  43  93 SE12      29.59F FOG
WICHITA JABRA  CLOUDY    43  42  97 S12       29.59F FOG
WICHITA MCCONL CLOUDY    44  43  97 SE12      29.59F FOG
WINFIELD       CLOUDY    44  44 100 SE13      29.61F FOG
$$

KSZ007>012-019>026-033>040-048>060-102>105-220900-
NORTHEAST KANSAS

CITY           SKY/WX    TMP DP  RH WIND       PRES   REMARKS
CONCORDIA      CLOUDY    43  43 100 S14G21    29.56F FOG
EMPORIA        CLOUDY    42  41  96 S10       29.63F FOG
LAWRENCE       CLOUDY    42  39  89 SE8       29.68F
MANHATTAN      LGT RAIN  44  42  93 S9        29.62F FOG
MARYSVILLE     LGT RAIN  43  41  93 S13G21    29.59F
OLATHE IND     CLOUDY    42  39  89 SE10      29.68F
OLATHE EXE     CLOUDY    42  38  85 SE12      29.68F
SALINA         CLOUDY    45  43  93 S14       29.58F FOG
TOPEKA BILLARD CLOUDY    45  41  86 S10       29.66F
TOPEKA FORBES  CLOUDY    44  40  85 S12       29.65F
$$


USA.gov is the U.S. government's official web portal to all federal, state and local government web resources and services.